Regional Weather Roundup
Issued by NWS Sioux Falls, SD

Home | Current Version | Previous Version | Graphics & Text | Print | Product List | Glossary On
Versions: 1 2 3 4 5 6 7 8 9 10 11 12 13 14 15 16 17 18 19 20 21 22 23 24 25 26 27 28 29 30 31 32 33 34 35 36 37 38 39 40 41 42 43 44 45 46 47 48 49 50
755
ASUS43 KFSD 241502
RWRFSD

WEATHER ROUNDUP FOR SE SOUTH DAKOTA/SW MINNESOTA/NW IOWA
NATIONAL WEATHER SERVICE SIOUX FALLS SD
1000 AM CDT SAT SEP 24 2016

NOTE: "FAIR" INDICATES FEW OR NO CLOUDS BELOW 12,000 FEET WITH NO
SIGNIFICANT WEATHER AND OR OBSTRUCTIONS TO VISIBILITY.


SDZ038>040-050-052>070-241600-
SOUTHEAST SOUTH DAKOTA

CITY           SKY/WX    TMP DP  RH WIND       PRES   REMARKS
CHAMBERLAIN    CLOUDY    65  55  70 SW10      29.84R
HURON          PTSUNNY   72  64  76 S16G25    29.82F
MADISON        FAIR      68  68 100 SE15G24   29.90S
MITCHELL       CLOUDY    73  65  75 SE14G24   29.85R
SIOUX FALLS    PTSUNNY   73  66  78 SE18G26   29.91F
WINNER         CLOUDY    64  49  57 W13       29.86R
YANKTON        CLOUDY    72  66  83 SE10      29.87S
$$

MNZ071-072-080-081-089-090-097-098-241600-
SOUTHWEST MINNESOTA

CITY           SKY/WX    TMP DP  RH WIND       PRES   REMARKS
FAIRMONT       CLOUDY    69  65  86 SE14G22   30.05S
JACKSON        PTSUNNY   72  63  73 SE16      30.02F
LUVERNE        SUNNY     70  63  78 SE13G21   29.96S
MARSHALL       CLOUDY    70  66  87 SE16G23   29.96F
MONTEVIDEO     PTSUNNY   72  66  83 S16       29.99S
PIPESTONE      MOSUNNY   72  66  83 SE14G24   29.95F
REDWOOD FALLS  CLOUDY    70  64  81 SE20G28   30.00R
TRACY          LGT RAIN  68  67  96 S10       29.99S
WINDOM         CLOUDY    70  64  83 SE15G23   30.01F
WORTHINGTON    CLOUDY    71  66  84 SE15G23   30.00F
$$

IAZ001>003-012>014-020>022-031-032-NEZ013-014-SDZ071-241600-
NORTHWEST IOWA

CITY           SKY/WX    TMP DP  RH WIND       PRES   REMARKS
CHEROKEE       MOSUNNY   74  68  81 SE10      29.99S
DENISON        PTSUNNY   77  66  69 SE13G20   29.98R
ESTHERVILLE    CLOUDY    69  67  93 SE16      30.03S
LE MARS        PTSUNNY   75  66  73 SE14G22   29.95S
ORANGE CITY    MOSUNNY   73  66  78 SE14G20   29.96S
SHELDON        SUNNY     73  68  83 SE12G20   29.96S
SIOUX CITY     MOSUNNY   78  68  71 SE14      29.93S
SPENCER        CLOUDY    71  66  84 SE16      30.01S
STORM LAKE     SUNNY     72  66  83 SE13G18   30.02R
$$

ABBREVIATIONS USED IN REMARKS
   TC - TEMPERATURE IN CELSIUS
  WCI - WIND CHILL INDEX
   HX - HEAT INDEX
  VSB - VISIBILITY





USA.gov is the U.S. government's official web portal to all federal, state and local government web resources and services.